Content
SEND FEEDBACK

Daily
Averages
Monthly
Summary
Ukraine

L'VIV, UKRAINE


Home > Europe > Ukraine
Elevation: 1065 feet     Latitude: 49 49N     Longitude: 023 57E

WEATHER
 
SELECT A DAY
Number of Records: 309,772;   Date Range: 7/1/96 - 7/29/14
 
SHARE

PRINT THIS DATA

[ ← Previous Day ]
WEATHER ALMANAC - JANUARY 31, 2013
[ Next Day → ]
[ °C ]   °F
Weather ElementAverageHighLow
Temperature38.4 °F41 °F (1:27 pm)35 °F (2:00 am)
Dewpoint32.7 °F37.4 °F (4:00 am)23 °F (11:00 pm)
Humidity80.1 %100 % (12:30 am)42 % (11:00 pm)
Barometer29.69 in29.78 in (2:00 pm)29.59 in (2:00 am)
Wind Speed12.8 mph22.4 mph (2:30 pm)
Wind Gust33.6 mph (1:27 pm)
Weather ElementAverage
Visibility6 mi
Wind DirectionWSW (259.7 °)

Weather ElementTotal
Precipitation---
Heating Degree Days27 (Base 65)
Averaged from 59 records on January 31, 2013
WEATHER CONDITIONS BREAKOUT
WIND DIRECTION BREAKOUT
WEATHER BY HOUR - JANUARY 31, 2013
[ °C ]   °F
Local TimeTemperatureDewpointHumidityBarometerVisibilityWind DirectionWind SpeedGust SpeedPrecipitationEventsConditions
12:30 AM35.6 °F35.6 °F100 %29.65 inSSW (210°)6.7 mphRainLight Rain
1:00 AM35.6 °F35.6 °F100 %29.62 in5.6 miSSW (200°)6.7 mphRainLight Rain
1:30 AM35.6 °F35.6 °F100 %29.62 in6.2 miSouth (190°)4.5 mphRainLight Rain
2:00 AM35.0 °F34.0 °F94 %29.67 in4.0 miSSW (200°)4.5 mphRainLight Rain
2:00 AM35.6 °F35.6 °F100 %29.59 in3.7 miSouth (190°)4.5 mphRainLight Rain
2:30 AM35.6 °F35.6 °F100 %29.59 inSouth (190°)6.7 mphRainLight Rain
3:00 AM35.6 °F35.6 °F100 %29.62 in5.0 miWSW (240°)6.7 mphRainLight Rain
3:30 AM37.4 °F35.6 °F93 %29.62 in6.2 miWSW (240°)8.9 mphRainLight Rain
4:00 AM37.4 °F37.4 °F100 %29.62 in6.2 miWSW (250°)8.9 mphRainLight Rain
4:30 AM37.4 °F37.4 °F100 %29.62 in6.2 miWSW (250°)8.9 mphRainLight Rain
5:00 AM38.0 °F36.0 °F91 %29.67 in6.0 miWest (280°)8.9 mphRainLight Rain
5:00 AM39.2 °F37.4 °F93 %29.62 in6.2 miWest (260°)11.2 mphRainLight Rain
5:30 AM39.2 °F37.4 °F93 %29.62 in5.0 miWest (270°)11.2 mphRainLight Rain
6:00 AM39.2 °F37.4 °F93 %29.62 in6.2 miWest (270°)15.7 mphRainLight Rain
6:30 AM39.2 °F37.4 °F93 %29.65 in6.2 miWest (280°)15.7 mphRainLight Rain
7:00 AM37.4 °F37.4 °F100 %29.65 in6.2 miWest (280°)13.4 mphRainLight Rain
7:06 AM37.4 °F37.4 °F100 %29.68 in6.2 miWest (280°)11.2 mphRainLight Rain
7:30 AM37.4 °F37.4 °F100 %29.68 in6.2 miWest (270°)11.2 mphOvercast
8:00 AM37.0 °F36.0 °F95 %29.74 in6.0 miWNW (300°)11.2 mphRainLight Rain
8:00 AM37.4 °F37.4 °F100 %29.68 in6.2 miWest (280°)13.4 mphOvercast
8:30 AM37.4 °F37.4 °F100 %29.68 in6.2 miWest (280°)13.4 mphOvercast
9:00 AM37.4 °F35.6 °F93 %29.68 in6.2 miWest (280°)11.2 mphOvercast
9:30 AM37.4 °F35.6 °F93 %29.71 in6.2 miWest (270°)11.2 mphOvercast
10:00 AM37.4 °F35.6 °F93 %29.71 in6.2 miWest (270°)11.2 mphOvercast
10:30 AM37.4 °F35.6 °F93 %29.71 in6.2 miWest (260°)11.2 mphMostly Cloudy
11:00 AM38.0 °F34.0 °F80 %29.77 in6.0 miWNW (300°)13.4 mphMostly Cloudy
11:00 AM39.2 °F33.8 °F81 %29.71 in6.2 miWest (270°)15.7 mphMostly Cloudy
11:21 AM39.2 °F33.8 °F81 %29.74 in6.2 miWest (270°)15.7 mph26.8 mphMostly Cloudy
11:30 AM39.2 °F33.8 °F81 %29.74 in6.2 miWest (270°)17.9 mphMostly Cloudy
12:00 PM39.2 °F32.0 °F75 %29.74 in6.2 miWest (280°)17.9 mphMostly Cloudy
12:30 PM39.2 °F32.0 °F75 %29.74 in6.2 miWest (280°)20.1 mph31.3 mphMostly Cloudy
1:00 PM39.2 °F32.0 °F75 %29.74 in6.2 miWest (280°)17.9 mph29.1 mphMostly Cloudy
1:27 PM41.0 °F32.0 °F70 %29.74 in6.2 miWest (280°)20.1 mph33.6 mphMostly Cloudy
1:30 PM41.0 °F32.0 °F70 %29.74 in6.2 miWest (280°)20.1 mph33.6 mphMostly Cloudy
2:00 PM41.0 °F31.0 °F58 %29.78 in6.0 miWNW (300°)15.7 mphMostly Cloudy
2:00 PM41.0 °F32.0 °F70 %29.74 in6.2 miWest (280°)17.9 mph33.6 mphMostly Cloudy
2:30 PM39.2 °F32.0 °F75 %29.74 in6.2 miWest (270°)22.4 mph33.6 mphRainLight Rain
3:00 PM39.2 °F32.0 °F75 %29.74 in6.2 miWest (270°)15.7 mph26.8 mphRainLight Rain
3:30 PM41.0 °F30.2 °F65 %29.74 in6.2 miWest (270°)15.7 mph26.8 mphOvercast
4:00 PM41.0 °F30.2 °F65 %29.71 in6.2 miWest (270°)22.4 mph33.6 mphOvercast
4:30 PM39.2 °F28.4 °F65 %29.71 in6.2 miWest (280°)17.9 mphOvercast
4:42 PM39.2 °F30.2 °F70 %29.71 in6.2 miWest (270°)17.9 mph29.1 mphMostly Cloudy
5:00 PM40.0 °F30.0 °F56 %29.76 in6.0 miWNW (300°)15.7 mphPartly Cloudy
5:00 PM39.2 °F30.2 °F70 %29.71 in6.2 miWest (270°)17.9 mph29.1 mphMostly Cloudy
5:30 PM39.2 °F30.2 °F70 %29.71 inWest (270°)15.7 mph26.8 mphClear
6:00 PM39.2 °F30.2 °F70 %29.71 inWest (260°)15.7 mph26.8 mphClear
6:30 PM39.2 °F30.2 °F70 %29.71 in6.2 miWest (280°)13.4 mphOvercast
7:00 PM39.2 °F28.4 °F65 %29.71 inWest (260°)6.7 mphClear
7:30 PM39.2 °F30.2 °F70 %29.68 inSW (230°)8.9 mphClear
8:00 PM39.0 °F26.0 °F49 %29.73 in6.0 miWest (260°)8.9 mphPartly Cloudy
8:00 PM39.2 °F28.4 °F65 %29.68 inWSW (240°)11.2 mphClear
8:30 PM39.2 °F28.4 °F65 %29.65 inWSW (240°)13.4 mphClear
9:00 PM39.2 °F28.4 °F65 %29.65 inSW (230°)8.9 mphClear
9:30 PM37.4 °F28.4 °F70 %29.65 inSW (230°)8.9 mphClear
10:00 PM39.2 °F26.6 °F61 %29.62 inWSW (240°)11.2 mphClear
10:30 PM37.4 °F26.6 °F65 %29.62 inWSW (240°)11.2 mphClear
11:00 PM38.0 °F23.0 °F42 %29.69 in6.0 miWest (270°)11.2 mphOvercast
11:00 PM39.2 °F26.6 °F61 %29.65 inWSW (250°)11.2 mphClear
11:30 PM39.2 °F26.6 °F61 %29.65 inWSW (240°)13.4 mphClear
Hourly data recorded from UKLL, located miles away from L'viv, Ukraine







STORIES FROM OUR PARTNERS